| time (UTC) | temp C | wind direction | speed KPH | gust KPH | rain 1hr cm | rain 24hr cm | rain mn cm | humidity % | barometer mb |
| 20260510164610 | 26 | 146 | 6.4 | 14.5 | 0.00 | 3.30 | 0.00 | 82 | 1017.2 |
| 20260510163051 | 25 | 142 | 8.0 | 14.5 | 0.00 | 3.30 | 0.00 | 85 | 1017.1 |
| 20260510161650 | 25 | 163 | 4.8 | 9.7 | 0.00 | 3.30 | 0.00 | 85 | 1017.1 |
| 20260510160054 | 24 | 148 | 4.8 | 11.3 | 0.00 | 3.30 | 0.00 | 86 | 1017.3 |
| 20260510154547 | 23 | 120 | 3.2 | 14.5 | 0.00 | 3.96 | 0.00 | 86 | 1017.4 |
| 20260510153050 | 24 | 97 | 6.4 | 16.1 | 0.00 | 3.96 | 0.00 | 86 | 1017.4 |
| 20260510151543 | 23 | 142 | 8.0 | 14.5 | 0.00 | 3.96 | 0.00 | 88 | 1017.4 |
| 20260510150044 | 23 | 88 | 9.7 | 19.3 | 0.00 | 3.96 | 0.00 | 89 | 1017.3 |
| 20260510144544 | 22 | 132 | 3.2 | 16.1 | 0.00 | 4.93 | 0.00 | 90 | 1017.5 |
| 20260510143028 | 22 | 49 | 4.8 | 11.3 | 0.00 | 4.93 | 0.00 | 90 | 1017.4 |
| 20260510141525 | 21 | 82 | 1.6 | 14.5 | 0.00 | 4.93 | 0.00 | 92 | 1017.2 |
| 20260510140025 | 21 | 65 | 6.4 | 19.3 | 0.00 | 5.00 | 0.00 | 93 | 1017.2 |
| 20260510134520 | 21 | 111 | 9.7 | 17.7 | 0.00 | 5.00 | 0.00 | 94 | 1017.1 |
| 20260510133019 | 20 | 90 | 4.8 | 12.9 | 0.00 | 5.00 | 0.00 | 95 | 1017.1 |
| 20260510131515 | 20 | 109 | 4.8 | 12.9 | 0.00 | 5.00 | 0.00 | 95 | 1016.8 |
| 20260510130013 | 20 | 112 | 3.2 | 6.4 | 0.00 | 5.00 | 0.00 | 96 | 1016.5 |
| 20260510124510 | 20 | 123 | 1.6 | 4.8 | 0.00 | 5.00 | 0.00 | 96 | 1016.2 |
| 20260510123008 | 19 | 113 | 1.6 | 6.4 | 0.00 | 5.00 | 0.00 | 96 | 1015.8 |
| 20260510121508 | 19 | 80 | 0.0 | 3.2 | 0.00 | 5.00 | 0.00 | 96 | 1015.8 |
| 20260510120007 | 18 | 61 | 0.0 | 1.6 | 0.00 | 5.00 | 0.00 | 96 | 1015.6 |
| 20260510114504 | 18 | 92 | 0.0 | 4.8 | 0.00 | 5.00 | 0.00 | 96 | 1015.3 |
| 20260510113002 | 18 | 123 | 3.2 | 8.0 | 0.00 | 5.00 | 0.00 | 96 | 1015.1 |
| 20260510111600 | 18 | 83 | 1.6 | 4.8 | 0.00 | 5.00 | 0.00 | 96 | 1014.9 |
| 20260510110104 | 18 | 116 | 1.6 | 4.8 | 0.00 | 5.00 | 0.00 | 95 | 1014.5 |
| 20260510104610 | 18 | 117 | 0.0 | 0.0 | 0.00 | 5.00 | 0.00 | 95 | 1014.3 |
| 20260510103055 | 18 | 117 | 0.0 | 0.0 | 0.00 | 5.00 | 0.00 | 95 | 1013.9 |
| 20260510101555 | 18 | 117 | 0.0 | 1.6 | 0.00 | 5.00 | 0.00 | 95 | 1013.7 |
| 20260510100057 | 18 | 117 | 0.0 | 0.0 | 0.00 | 5.00 | 0.00 | 95 | 1013.7 |
| 20260510094552 | 18 | 115 | 0.0 | 0.0 | 0.00 | 5.00 | 0.00 | 95 | 1013.8 |
| 20260510093051 | 18 | 11 | 0.0 | 0.0 | 0.00 | 5.00 | 0.00 | 95 | 1013.8 |
| 20260510091550 | 18 | 11 | 0.0 | 0.0 | 0.00 | 5.00 | 0.00 | 95 | 1013.6 |
| 20260510090050 | 18 | 11 | 0.0 | 0.0 | 0.00 | 5.00 | 0.00 | 95 | 1013.6 |
| 20260510084552 | 18 | 11 | 1.6 | 3.2 | 0.00 | 5.00 | 0.00 | 95 | 1013.6 |
| 20260510083048 | 18 | 11 | 0.0 | 3.2 | 0.00 | 5.00 | 0.00 | 95 | 1013.5 |
| 20260510081546 | 18 | 11 | 1.6 | 3.2 | 0.00 | 5.00 | 0.00 | 94 | 1013.6 |
| 20260510080043 | 18 | 28 | 0.0 | 0.0 | 0.00 | 5.00 | 0.00 | 94 | 1013.2 |
| 20260510074549 | 18 | 28 | 0.0 | 0.0 | 0.00 | 5.00 | 0.00 | 94 | 1013.1 |
| 20260510073046 | 19 | 28 | 0.0 | 0.0 | 0.00 | 5.00 | 0.00 | 94 | 1013.0 |
| 20260510071547 | 19 | 13 | 0.0 | 0.0 | 0.00 | 5.00 | 0.00 | 94 | 1013.0 |
| 20260510070041 | 19 | 34 | 0.0 | 3.2 | 0.00 | 5.00 | 0.00 | 94 | 1012.7 |
| 20260510064540 | 19 | 31 | 1.6 | 6.4 | 0.00 | 5.00 | 0.00 | 93 | 1012.9 |
| 20260510063034 | 20 | 360 | 3.2 | 14.5 | 0.00 | 5.00 | 0.00 | 93 | 1013.0 |
| 20260510061532 | 20 | 333 | 0.0 | 25.7 | 0.00 | 5.00 | 0.00 | 93 | 1012.9 |
| 20260510060034 | 20 | 183 | 0.0 | 14.5 | 0.00 | 5.00 | 0.00 | 92 | 1012.2 |
| 20260510054527 | 20 | 184 | 8.0 | 12.9 | 0.00 | 5.00 | 0.00 | 92 | 1012.2 |
| 20260510053026 | 20 | 206 | 4.8 | 11.3 | 0.00 | 5.00 | 0.00 | 93 | 1012.4 |
| 20260510051536 | 20 | 156 | 6.4 | 12.9 | 0.00 | 5.00 | 0.00 | 93 | 1012.4 |
| 20260510050022 | 20 | 141 | 6.4 | 14.5 | 0.00 | 5.00 | 5.00 | 94 | 1012.4 |
| 20260510044524 | 20 | 165 | 8.0 | 17.7 | 0.00 | 5.00 | 5.00 | 95 | 1012.5 |
| 20260510043024 | 20 | 178 | 8.0 | 16.1 | 0.00 | 5.00 | 5.00 | 95 | 1012.8 |
| 20260510041520 | 20 | 186 | 8.0 | 14.5 | 0.00 | 5.00 | 5.00 | 95 | 1013.3 |
| 20260510040020 | 20 | 180 | 0.0 | 4.8 | 0.00 | 5.00 | 5.00 | 95 | 1013.7 |
| 20260510034519 | 20 | 170 | 3.2 | 8.0 | 0.00 | 5.00 | 5.00 | 95 | 1014.0 |
| 20260510033021 | 20 | 178 | 1.6 | 6.4 | 0.00 | 5.00 | 5.00 | 95 | 1014.4 |
| 20260510031519 | 20 | 22 | 0.0 | 0.0 | 0.00 | 5.00 | 5.00 | 95 | 1014.7 |
| 20260510030019 | 20 | 22 | 0.0 | 0.0 | 0.00 | 5.00 | 5.00 | 95 | 1014.6 |
| 20260510024522 | 20 | 22 | 0.0 | 0.0 | 0.00 | 5.00 | 5.00 | 95 | 1014.6 |
| 20260510023019 | 20 | 137 | 0.0 | 3.2 | 0.00 | 5.00 | 5.00 | 95 | 1014.1 |
| 20260510021517 | 20 | 155 | 0.0 | 0.0 | 0.00 | 5.00 | 5.00 | 95 | 1013.9 |
| 20260510020016 | 20 | 155 | 0.0 | 1.6 | 0.00 | 5.00 | 5.00 | 95 | 1013.6 |
| 20260510014522 | 20 | 158 | 1.6 | 6.4 | 0.00 | 5.00 | 5.00 | 95 | 1013.5 |
| 20260510013017 | 20 | 139 | 1.6 | 9.7 | 0.00 | 5.00 | 5.00 | 95 | 1013.3 |
| 20260510011523 | 20 | 138 | 1.6 | 9.7 | 0.00 | 5.00 | 5.00 | 95 | 1012.9 |
| 20260510010015 | 20 | 132 | 6.4 | 16.1 | 0.00 | 5.00 | 5.00 | 95 | 1012.7 |
| 20260510004513 | 20 | 157 | 4.8 | 16.1 | 0.00 | 5.00 | 5.00 | 94 | 1012.5 |
| 20260510003014 | 20 | 144 | 8.0 | 16.1 | 0.00 | 5.00 | 5.00 | 95 | 1012.6 |
| 20260510001513 | 20 | 142 | 6.4 | 16.1 | 0.00 | 5.00 | 5.00 | 95 | 1012.6 |
| 20260510000013 | 20 | 147 | 8.0 | 14.5 | 0.00 | 5.00 | 5.00 | 94 | 1012.6 |
| 20260509234511 | 20 | 165 | 3.2 | 6.4 | 0.00 | 5.00 | 5.00 | 94 | 1012.7 |
| 20260509233010 | 20 | 151 | 3.2 | 11.3 | 0.03 | 5.00 | 5.00 | 94 | 1012.7 |
| 20260509231513 | 20 | 147 | 3.2 | 9.7 | 0.03 | 5.00 | 5.00 | 94 | 1012.6 |
| 20260509230010 | 20 | 116 | 0.0 | 3.2 | 0.03 | 5.00 | 5.00 | 94 | 1012.7 |
| 20260509224511 | 20 | 91 | 3.2 | 4.8 | 0.03 | 5.00 | 5.00 | 94 | 1012.4 |
| 20260509223011 | 20 | 93 | 0.0 | 11.3 | 0.00 | 4.98 | 4.98 | 94 | 1012.6 |
| 20260509221524 | 20 | 38 | 1.6 | 6.4 | 0.03 | 4.98 | 4.98 | 94 | 1012.7 |
| 20260509220008 | 20 | 102 | 3.2 | 6.4 | 0.08 | 5.13 | 4.98 | 94 | 1012.4 |
| 20260509214507 | 20 | 113 | 1.6 | 6.4 | 0.08 | 5.13 | 4.98 | 94 | 1012.4 |
| 20260509213007 | 20 | 68 | 0.0 | 6.4 | 0.08 | 5.13 | 4.98 | 94 | 1012.5 |
| 20260509211507 | 20 | 61 | 1.6 | 6.4 | 0.05 | 5.08 | 4.95 | 94 | 1012.5 |
| 20260509210006 | 20 | 129 | 3.2 | 11.3 | 0.00 | 6.30 | 4.90 | 94 | 1012.5 |
| 20260509204505 | 20 | 111 | 3.2 | 14.5 | 0.00 | 6.30 | 4.90 | 94 | 1012.1 |
| 20260509203005 | 20 | 130 | 8.0 | 19.3 | 0.00 | 6.30 | 4.90 | 94 | 1011.9 |
| 20260509201505 | 20 | 126 | 8.0 | 19.3 | 0.00 | 6.30 | 4.90 | 95 | 1012.2 |
| 20260509200004 | 19 | 111 | 9.7 | 19.3 | 0.00 | 7.11 | 4.90 | 95 | 1012.6 |
| 20260509194503 | 19 | 101 | 11.3 | 19.3 | 0.08 | 7.11 | 4.90 | 95 | 1012.8 |
| 20260509193003 | 20 | 96 | 12.9 | 19.3 | 0.15 | 7.11 | 4.90 | 96 | 1012.9 |
| 20260509191504 | 19 | 152 | 3.2 | 11.3 | 0.30 | 7.11 | 4.90 | 95 | 1013.9 |
| 20260509190002 | 19 | 161 | 6.4 | 12.9 | 0.38 | 7.09 | 4.88 | 95 | 1013.7 |
| 20260509184503 | 19 | 136 | 4.8 | 11.3 | 0.46 | 7.04 | 4.83 | 95 | 1013.5 |
| 20260509183001 | 19 | 142 | 3.2 | 11.3 | 0.51 | 6.96 | 4.75 | 95 | 1014.4 |
| 20260509181501 | 18 | 116 | 4.8 | 12.9 | 0.48 | 6.81 | 4.60 | 95 | 1014.3 |
| 20260509180101 | 18 | 141 | 12.9 | 19.3 | 0.46 | 6.71 | 4.50 | 95 | 1013.4 |
| 20260509174559 | 19 | 128 | 6.4 | 12.9 | 1.27 | 6.58 | 4.37 | 95 | 1014.1 |
| 20260509173109 | 19 | 74 | 9.7 | 17.7 | 2.44 | 6.45 | 4.27 | 95 | 1013.9 |
| 20260509171617 | 19 | 141 | 12.9 | 25.7 | 2.36 | 6.32 | 4.11 | 95 | 1013.7 |
| 20260509170057 | 19 | 144 | 9.7 | 29.0 | 2.29 | 6.22 | 4.01 | 95 | 1013.4 |